DateTimeUTC,F1_A11,F1_S11,BsB_S11,BsG_S11,BsR_S11,BbsB_S11,BbsG_S11,BbsR_S11,BaB_A11,BaG_A11,BaR_A11,Tu_S11,T_S11,Uu_S11,U_S11,P_S11,T1_A11
2021-04-30T23:00:00Z,00000200,21000000,,,,,,,-000.31,-000.35,-000.06,17.4,24.8,,00.0,0682.1,31.1
2021-04-30T23:01:00Z,00000200,21000000,,,,,,,-000.82,-000.83,-000.54,17.4,24.8,,00.0,0682.1,31.1
2021-04-30T23:02:00Z,00000200,21000000,,,,,,,0000.10,-000.06,0000.12,17.4,24.8,,00.0,0682.1,31.1
2021-04-30T23:03:00Z,00000200,61000000,,,,,,,-000.48,-000.25,-000.44,17.4,24.8,,00.0,0682.1,31.1
2021-04-30T23:04:00Z,00000200,41000000,0004.10,0003.35,0002.47,0000.52,0000.63,0000.47,0001.22,0000.92,0001.18,17.5,24.5,,00.0,0683.0,31.1
2021-04-30T23:05:00Z,00000200,01000000,0004.82,0003.22,0002.01,0000.72,0000.51,0000.22,0001.78,0001.66,0001.10,17.5,24.5,,00.0,0683.1,31.0
2021-04-30T23:06:00Z,00000200,01000000,0004.79,0003.12,0001.82,0000.48,0000.62,0000.37,0001.91,0001.38,0001.06,17.5,24.4,,00.0,0683.1,31.0
2021-04-30T23:07:00Z,00000200,01000000,0003.75,0002.86,0001.87,0000.39,0000.52,0000.23,0001.79,0001.57,0000.99,17.5,24.4,,00.0,0683.1,31.0
2021-04-30T23:08:00Z,00000200,01000000,0004.06,0003.03,0001.89,0000.89,0000.37,0000.22,0001.75,0001.86,0001.76,17.6,24.4,,00.0,0683.1,31.1
2021-04-30T23:09:00Z,00000200,01000000,0004.06,0002.73,0001.76,0000.82,0000.31,0000.29,0001.34,0001.06,0001.02,17.6,24.5,,00.0,0683.1,31.1
2021-04-30T23:10:00Z,00000200,01000000,0001.87,0001.39,0000.90,0000.60,0000.21,0000.18,0002.20,0002.48,0001.18,17.6,24.5,,00.0,0683.1,31.1
2021-04-30T23:11:00Z,00000200,01000000,0003.00,0002.14,0001.65,0000.29,0000.74,0000.30,0000.77,0000.14,0000.32,17.6,24.5,,00.0,0683.1,31.1
2021-04-30T23:12:00Z,00000200,01000000,0002.75,0001.51,0001.02,0000.55,0000.16,0000.44,0001.15,0001.48,0000.65,17.6,24.5,,00.0,0683.1,31.1
2021-04-30T23:13:00Z,00000200,01000000,0001.24,0001.43,0000.90,-000.11,0000.26,0000.19,0001.62,0001.15,0000.98,17.6,24.4,,00.0,0683.1,31.1
2021-04-30T23:14:00Z,00000200,01000000,0002.97,0002.47,0001.25,0000.35,0000.44,0000.39,-000.30,-000.25,-000.05,17.6,24.4,,00.0,0683.2,31.0
2021-04-30T23:15:00Z,00000200,01000000,0002.14,0001.86,0001.06,0000.61,0000.47,0000.17,0001.33,0000.96,0000.71,17.6,24.4,,00.0,0683.2,31.1
2021-04-30T23:16:00Z,00000200,01000000,0003.57,0002.29,0001.59,0000.71,0000.29,0000.31,0000.83,0000.98,0000.73,17.6,24.4,,00.0,0683.2,31.1
2021-04-30T23:17:00Z,00000200,01000000,0003.65,0002.49,0001.82,0000.22,0000.59,0000.51,0001.06,0001.01,0000.70,17.5,24.4,,00.0,0683.2,31.1
2021-04-30T23:18:00Z,00000200,01000000,0003.22,0002.69,0001.70,0000.58,0000.39,0000.34,0001.69,0001.54,0001.03,17.5,24.4,,00.0,0683.2,31.1
2021-04-30T23:19:00Z,00000200,01000000,0004.20,0002.61,0001.63,0000.28,0000.41,0000.32,0001.21,0001.13,0001.22,17.5,24.4,,00.0,0683.2,31.1
2021-04-30T23:20:00Z,00000200,01000000,0003.96,0002.70,0001.65,0000.60,0000.37,0000.57,0001.69,0001.39,0000.71,17.5,24.4,,00.0,0683.2,31.1
2021-04-30T23:21:00Z,00000200,01000000,0003.48,0002.91,0001.80,0000.32,0000.46,0000.48,0001.40,0000.79,0000.79,17.5,24.3,,00.0,0683.2,31.1
2021-04-30T23:22:00Z,00000200,01000000,0003.65,0002.81,0001.51,0000.46,0000.51,0000.17,0001.59,0001.74,0001.19,17.5,24.3,,00.0,0683.2,31.1
2021-04-30T23:23:00Z,00000200,01000000,0004.50,0002.40,0001.67,0000.28,0000.57,0000.42,0001.52,0001.43,0001.31,17.5,24.4,,00.0,0683.2,31.1
2021-04-30T23:24:00Z,00000200,01000000,0003.94,0002.49,0001.72,0000.80,0000.53,0000.36,0001.88,0001.76,0001.25,17.6,24.4,,00.0,0683.2,31.1
2021-04-30T23:25:00Z,00000200,01000000,0003.03,0002.70,0001.33,0000.86,0000.21,0000.18,0001.00,0000.90,0000.75,17.6,24.4,,00.0,0683.2,31.1
2021-04-30T23:26:00Z,00000200,01000000,0003.21,0002.30,0001.61,0000.01,0000.34,0000.26,0001.63,0001.40,0000.67,17.6,24.4,,00.0,0683.2,31.1
2021-04-30T23:27:00Z,00000200,01000000,0002.80,0002.09,0001.32,0000.03,0000.20,0000.18,0001.32,0001.39,0000.86,17.6,24.4,,00.0,0683.2,31.1
2021-04-30T23:28:00Z,00000200,01000000,0002.46,0001.86,0001.46,-000.03,0000.21,0000.40,0001.89,0001.42,0001.37,17.6,24.4,,00.0,0683.2,31.1
2021-04-30T23:29:00Z,00000200,01000000,0002.61,0001.38,0001.41,0000.39,0000.03,0000.20,0000.92,0000.95,0000.23,17.6,24.4,,00.0,0683.2,31.1
2021-04-30T23:30:00Z,00000200,01000000,0002.70,0001.60,0001.64,0000.59,0000.32,0000.61,0000.71,0000.31,0000.48,17.6,24.4,,00.0,0683.2,31.1
2021-04-30T23:31:00Z,00000200,01000000,0002.64,0001.65,0001.09,0000.48,0000.13,0000.29,0001.05,0001.13,0000.65,17.6,24.4,,00.0,0683.2,31.1
2021-04-30T23:32:00Z,00000200,01000000,0001.40,0001.49,0000.97,0000.54,0000.17,0000.20,0001.22,0001.23,0000.87,17.6,24.4,,00.0,0683.2,31.1
2021-04-30T23:33:00Z,00000200,01000000,0001.60,0001.57,0001.18,0000.16,0000.27,0000.19,0000.98,0000.43,0000.77,17.6,24.4,,00.0,0683.2,31.1
2021-04-30T23:34:00Z,00000200,01000000,0002.16,0001.64,0001.58,0000.13,0000.53,0000.51,0000.74,0001.41,0000.45,17.5,24.4,,00.0,0683.2,31.1
2021-04-30T23:35:00Z,00000200,01000000,0001.78,0001.65,0000.69,0000.36,0000.38,0000.11,0001.21,0000.69,0000.60,17.5,24.4,,00.0,0683.2,31.1
2021-04-30T23:36:00Z,00000200,01000000,0001.74,0000.88,0000.78,-000.10,0000.31,-000.30,0000.49,0000.44,0000.59,17.5,24.3,,00.0,0683.2,31.1
2021-04-30T23:37:00Z,00000200,01000000,0002.47,0001.45,0000.72,0000.09,0000.27,0000.05,0000.60,0000.50,0000.32,17.6,24.3,,00.0,0683.2,31.1
2021-04-30T23:38:00Z,00000200,01000000,0001.65,0001.59,0000.93,0000.38,0000.31,0000.23,0000.86,0000.70,0000.71,17.6,24.4,,00.0,0683.2,31.1
2021-04-30T23:39:00Z,00000200,01000000,0001.86,0001.21,0000.87,-000.04,0000.23,0000.22,0000.69,0000.92,0000.32,17.7,24.4,,00.0,0683.2,31.1
2021-04-30T23:40:00Z,00000200,01000000,0002.09,0001.06,0001.04,0000.57,0000.13,-000.12,0000.81,-000.06,-000.07,17.7,24.4,,00.0,0683.2,31.1
2021-04-30T23:41:00Z,00000200,01000000,0002.09,0001.39,0001.01,0000.35,0000.48,0000.15,0000.55,0001.12,0000.64,17.7,24.4,,00.0,0683.2,31.1
2021-04-30T23:42:00Z,00000200,01000000,0002.07,0001.38,0001.19,0000.19,0000.28,0000.10,0000.99,0000.91,0001.10,17.7,24.4,,00.0,0683.2,31.1
2021-04-30T23:43:00Z,00000200,01000000,0002.31,0001.37,0000.85,0000.22,0000.33,0000.02,0000.61,0000.16,0000.05,17.6,24.4,,00.0,0683.2,31.1
2021-04-30T23:44:00Z,00000200,01000000,0001.88,0001.24,0001.00,0000.03,0000.15,0000.27,0000.92,0000.89,0000.62,17.7,24.4,,00.0,0683.2,31.1
2021-04-30T23:45:00Z,00000200,01000000,0002.05,0001.74,0001.14,-000.25,0000.47,0000.26,0000.70,0000.88,0000.29,17.6,24.4,,00.0,0683.2,31.1
2021-04-30T23:46:00Z,00000200,01000000,0002.06,0001.81,0000.99,0000.10,0000.38,0000.26,0000.89,0000.71,0000.78,17.6,24.4,,00.0,0683.2,31.1
2021-04-30T23:47:00Z,00000200,01000000,0002.67,0001.38,0000.94,-000.01,0000.19,0000.29,0000.82,0000.78,0000.42,17.6,24.4,,00.0,0683.2,31.1
2021-04-30T23:48:00Z,00000200,01000000,0002.45,0001.48,0000.96,0000.08,0000.27,0000.15,0000.64,0000.51,0000.65,17.6,24.3,,00.0,0683.2,31.1
2021-04-30T23:49:00Z,00000200,01000000,0002.85,0001.62,0001.31,-000.18,0000.71,0000.20,0000.75,0000.60,0000.41,17.6,24.3,,00.0,0683.2,31.1
2021-04-30T23:50:00Z,00000200,01000000,0003.06,0001.80,0001.01,0000.38,0000.42,0000.08,0000.96,0000.50,0000.63,17.6,24.3,,00.0,0683.2,31.1
2021-04-30T23:51:00Z,00000200,01000000,0002.83,0001.91,0001.27,0000.07,0000.25,0000.21,0001.23,0001.13,0000.65,17.5,24.3,,00.0,0683.2,31.0
2021-04-30T23:52:00Z,00000200,01000000,0002.92,0001.65,0001.33,-000.09,0000.32,0000.17,0000.53,0001.01,0000.56,17.5,24.3,,00.0,0683.2,31.1
2021-04-30T23:53:00Z,00000200,01000000,0002.54,0001.89,0001.32,0000.15,0000.14,0000.12,0001.45,0000.76,0000.73,17.6,24.3,,00.0,0683.2,31.1
2021-04-30T23:54:00Z,00000200,01000000,0003.80,0002.09,0001.28,0000.12,0000.61,0000.40,0000.64,0001.02,0000.35,17.6,24.4,,00.0,0683.2,31.1
2021-04-30T23:55:00Z,00000200,01000000,0002.57,0002.32,0001.08,0000.58,0000.27,0000.26,0000.74,0000.99,0000.66,17.6,24.3,,00.0,0683.2,31.1
2021-04-30T23:56:00Z,00000200,01000000,0002.32,0001.94,0001.29,0000.27,0000.37,0000.15,0001.47,0000.88,0000.83,17.6,24.3,,00.0,0683.2,31.1
2021-04-30T23:57:00Z,00000200,41000000,,,,,,,0000.61,0000.50,0000.59,17.6,24.4,,00.0,0683.1,31.1
2021-04-30T23:58:00Z,00000200,61000000,,,,,,,-000.42,-000.09,0000.04,17.4,24.5,,00.0,0682.2,31.1
2021-04-30T23:59:00Z,00000200,21000000,,,,,,,-000.07,-000.30,-000.28,17.3,24.6,,00.0,0682.1,31.0
